| time (UTC) | temp F | wind direction | speed MPH | gust MPH | rain 1hr in | rain 24hr in | rain mn in | humidity % | barometer mb |
| 20260502130324 | 41 | 237 | 0.0 | 0.0 | 0.00 | 0.00 | 0.00 | 99 | 1012.1 |
| 20260502123319 | 37 | 140 | 0.0 | 0.0 | 0.00 | 0.00 | 0.00 | 98 | 1012.1 |
| 20260502122440 | 36 | 243 | 0.0 | 0.0 | 0.00 | 0.00 | 0.00 | 98 | 1012.1 |
| 20260502121222 | 35 | 243 | 0.0 | 2.0 | 0.00 | 0.00 | 0.00 | 98 | 1012.1 |
| 20260502120644 | 35 | 243 | 0.0 | 2.0 | 0.00 | 0.00 | 0.00 | 98 | 1012.1 |
| 20260502115451 | 35 | 243 | 3.0 | 3.0 | 0.00 | 0.00 | 0.00 | 98 | 1012.1 |
| 20260502114813 | 35 | 243 | 3.0 | 3.0 | 0.00 | 0.00 | 0.00 | 98 | 1012.1 |
| 20260502114232 | 34 | 243 | 0.0 | 0.0 | 0.00 | 0.00 | 0.00 | 98 | 1011.8 |
| 20260502113611 | 34 | 243 | 0.0 | 0.0 | 0.00 | 0.00 | 0.00 | 98 | 1011.8 |
| 20260502113039 | 34 | 243 | 0.0 | 0.0 | 0.00 | 0.00 | 0.00 | 98 | 1011.8 |
| 20260502112437 | 34 | 243 | 0.0 | 0.0 | 0.00 | 0.00 | 0.00 | 98 | 1011.8 |
| 20260502111828 | 34 | 243 | 0.0 | 0.0 | 0.00 | 0.00 | 0.00 | 98 | 1011.8 |
| 20260502110923 | 34 | 243 | 0.0 | 0.0 | 0.00 | 0.00 | 0.00 | 98 | 1011.8 |
| 20260502105418 | 34 | 243 | 2.0 | 3.0 | 0.00 | 0.00 | 0.00 | 97 | 1011.8 |
| 20260502104829 | 34 | 243 | 2.0 | 3.0 | 0.00 | 0.00 | 0.00 | 97 | 1011.8 |
| 20260502104217 | 35 | 87 | 0.0 | 0.0 | 0.00 | 0.00 | 0.00 | 97 | 1012.1 |
| 20260502103635 | 35 | 87 | 0.0 | 0.0 | 0.00 | 0.00 | 0.00 | 97 | 1012.1 |
| 20260502103043 | 35 | 87 | 0.0 | 0.0 | 0.00 | 0.00 | 0.00 | 97 | 1012.1 |
| 20260502102419 | 35 | 87 | 0.0 | 0.0 | 0.00 | 0.00 | 0.00 | 97 | 1012.1 |
| 20260502101846 | 35 | 87 | 0.0 | 0.0 | 0.00 | 0.00 | 0.00 | 97 | 1012.1 |
| 20260502100630 | 35 | 87 | 0.0 | 0.0 | 0.00 | 0.00 | 0.00 | 97 | 1012.1 |
| 20260502091252 | 35 | 87 | 0.0 | 0.0 | 0.00 | 0.00 | 0.00 | 97 | 1012.1 |
| 20260502090624 | 35 | 87 | 0.0 | 0.0 | 0.00 | 0.00 | 0.00 | 97 | 1012.1 |
| 20260502071224 | 36 | 247 | 0.0 | 0.0 | 0.00 | 0.00 | 0.00 | 96 | 1011.8 |
| 20260502070652 | 36 | 247 | 0.0 | 0.0 | 0.00 | 0.00 | 0.00 | 96 | 1011.8 |
| 20260502070035 | 37 | 247 | 0.0 | 0.0 | 0.00 | 0.00 | 0.00 | 96 | 1011.8 |
| 20260502063651 | 36 | 247 | 0.0 | 0.0 | 0.00 | 0.00 | 0.00 | 96 | 1012.1 |
| 20260502063042 | 37 | 247 | 0.0 | 0.0 | 0.00 | 0.00 | 0.00 | 96 | 1012.5 |
| 20260502061814 | 37 | 247 | 0.0 | 0.0 | 0.00 | 0.00 | 0.00 | 96 | 1012.5 |
| 20260502061249 | 37 | 247 | 0.0 | 0.0 | 0.00 | 0.00 | 0.00 | 95 | 1012.5 |
| 20260502060622 | 37 | 247 | 0.0 | 0.0 | 0.00 | 0.00 | 0.00 | 95 | 1012.5 |
| 20260502060047 | 37 | 247 | 0.0 | 0.0 | 0.00 | 0.00 | 0.00 | 95 | 1012.5 |
| 20260502055448 | 37 | 247 | 0.0 | 0.0 | 0.00 | 0.00 | 0.00 | 95 | 1012.5 |
| 20260502054820 | 37 | 247 | 0.0 | 0.0 | 0.00 | 0.00 | 0.00 | 95 | 1012.5 |
| 20260502054251 | 37 | 247 | 0.0 | 0.0 | 0.00 | 0.00 | 0.00 | 95 | 1012.5 |
| 20260502053021 | 37 | 247 | 0.0 | 0.0 | 0.00 | 0.00 | 0.00 | 94 | 1012.5 |
| 20260502052415 | 37 | 247 | 0.0 | 0.0 | 0.00 | 0.00 | 0.00 | 94 | 1012.5 |
| 20260502051826 | 37 | 247 | 0.0 | 0.0 | 0.00 | 0.00 | 0.00 | 94 | 1012.5 |
| 20260502051220 | 38 | 247 | 0.0 | 0.0 | 0.00 | 0.00 | 0.00 | 94 | 1012.5 |
| 20260502050628 | 38 | 247 | 0.0 | 0.0 | 0.00 | 0.00 | 0.00 | 94 | 1012.5 |
| 20260502050039 | 38 | 247 | 0.0 | 0.0 | 0.00 | 0.00 | 0.00 | 94 | 1012.5 |
| 20260502045433 | 38 | 247 | 0.0 | 0.0 | 0.00 | 0.00 | 0.00 | 94 | 1012.5 |
| 20260502044838 | 38 | 247 | 0.0 | 0.0 | 0.00 | 0.00 | 0.00 | 94 | 1012.5 |
| 20260502043951 | 39 | 247 | 0.0 | 0.0 | 0.00 | 0.00 | 0.00 | 94 | 1012.8 |
| 20260502042725 | 39 | 247 | 0.0 | 0.0 | 0.00 | 0.00 | 0.00 | 93 | 1012.8 |
| 20260502042129 | 39 | 247 | 0.0 | 0.0 | 0.00 | 0.00 | 0.00 | 93 | 1012.8 |
| 20260502041554 | 39 | 247 | 0.0 | 0.0 | 0.00 | 0.00 | 0.00 | 93 | 1012.8 |
| 20260502040935 | 40 | 247 | 0.0 | 0.0 | 0.00 | 0.00 | 0.00 | 93 | 1012.5 |
| 20260502040353 | 40 | 247 | 0.0 | 0.0 | 0.00 | 0.00 | 0.00 | 93 | 1012.5 |
| 20260502035735 | 40 | 247 | 0.0 | 0.0 | 0.00 | 0.00 | 0.00 | 92 | 1012.5 |
| 20260502033952 | 40 | 247 | 0.0 | 0.0 | 0.00 | 0.00 | 0.00 | 91 | 1012.5 |
| 20260502033341 | 40 | 247 | 0.0 | 0.0 | 0.00 | 0.00 | 0.00 | 91 | 1012.5 |
| 20260502032121 | 41 | 247 | 0.0 | 0.0 | 0.00 | 0.00 | 0.00 | 90 | 1012.5 |
| 20260502031527 | 42 | 247 | 0.0 | 0.0 | 0.00 | 0.00 | 0.00 | 88 | 1012.5 |
| 20260502030936 | 42 | 247 | 0.0 | 0.0 | 0.00 | 0.00 | 0.00 | 88 | 1012.5 |
| 20260502030329 | 42 | 247 | 0.0 | 0.0 | 0.00 | 0.00 | 0.00 | 88 | 1012.5 |
| 20260502025726 | 43 | 247 | 0.0 | 0.0 | 0.00 | 0.00 | 0.00 | 87 | 1012.5 |
| 20260502025148 | 43 | 247 | 0.0 | 0.0 | 0.00 | 0.00 | 0.00 | 87 | 1012.5 |
| 20260502024553 | 43 | 247 | 0.0 | 0.0 | 0.00 | 0.00 | 0.00 | 87 | 1012.5 |
| 20260502023949 | 43 | 247 | 0.0 | 0.0 | 0.00 | 0.00 | 0.00 | 85 | 1012.5 |
| 20260502023327 | 43 | 247 | 0.0 | 0.0 | 0.00 | 0.00 | 0.00 | 85 | 1012.5 |
| 20260502022736 | 44 | 247 | 0.0 | 0.0 | 0.00 | 0.00 | 0.00 | 83 | 1011.8 |
| 20260502022149 | 44 | 247 | 0.0 | 0.0 | 0.00 | 0.00 | 0.00 | 83 | 1011.8 |
| 20260502021524 | 45 | 247 | 0.0 | 0.0 | 0.00 | 0.00 | 0.00 | 82 | 1011.8 |
| 20260502020917 | 45 | 247 | 0.0 | 0.0 | 0.00 | 0.00 | 0.00 | 82 | 1011.8 |
| 20260502020338 | 45 | 247 | 0.0 | 0.0 | 0.00 | 0.00 | 0.00 | 82 | 1011.8 |
| 20260502015114 | 46 | 247 | 0.0 | 0.0 | 0.00 | 0.00 | 0.00 | 79 | 1011.5 |
| 20260502014554 | 46 | 247 | 0.0 | 0.0 | 0.00 | 0.00 | 0.00 | 79 | 1011.5 |
| 20260502013953 | 48 | 247 | 0.0 | 0.0 | 0.00 | 0.00 | 0.00 | 76 | 1011.5 |
| 20260502013312 | 48 | 247 | 0.0 | 0.0 | 0.00 | 0.00 | 0.00 | 76 | 1011.5 |
| 20260502012741 | 49 | 248 | 0.0 | 1.0 | 0.00 | 0.00 | 0.00 | 72 | 1011.1 |
| 20260502012136 | 49 | 248 | 0.0 | 1.0 | 0.00 | 0.00 | 0.00 | 72 | 1011.1 |
| 20260502011521 | 50 | 178 | 0.0 | 12.0 | 0.00 | 0.00 | 0.00 | 69 | 1010.8 |
| 20260502010935 | 50 | 178 | 0.0 | 12.0 | 0.00 | 0.00 | 0.00 | 69 | 1010.8 |
| 20260502010317 | 50 | 178 | 0.0 | 12.0 | 0.00 | 0.00 | 0.00 | 69 | 1010.8 |
| 20260502005749 | 51 | 252 | 7.0 | 12.0 | 0.00 | 0.00 | 0.00 | 67 | 1010.4 |
| 20260502005118 | 51 | 252 | 7.0 | 12.0 | 0.00 | 0.00 | 0.00 | 67 | 1010.4 |
| 20260502004519 | 52 | 243 | 6.0 | 14.0 | 0.00 | 0.00 | 0.00 | 66 | 1010.4 |
| 20260502003914 | 52 | 243 | 6.0 | 14.0 | 0.00 | 0.00 | 0.00 | 66 | 1010.4 |
| 20260502003311 | 52 | 243 | 6.0 | 14.0 | 0.00 | 0.00 | 0.00 | 66 | 1010.4 |
| 20260502002144 | 53 | 266 | 7.0 | 14.0 | 0.00 | 0.00 | 0.00 | 67 | 1010.1 |
| 20260502001533 | 53 | 266 | 7.0 | 14.0 | 0.00 | 0.00 | 0.00 | 67 | 1010.1 |
| 20260502000923 | 53 | 261 | 9.0 | 17.0 | 0.00 | 0.00 | 0.00 | 66 | 1009.8 |
| 20260502000354 | 53 | 261 | 9.0 | 17.0 | 0.00 | 0.00 | 0.00 | 66 | 1009.8 |
| 20260501235453 | 54 | 247 | 7.0 | 13.0 | 0.00 | 0.00 | 0.00 | 69 | 1009.1 |
| 20260501234840 | 54 | 247 | 7.0 | 13.0 | 0.00 | 0.00 | 0.00 | 69 | 1009.1 |
| 20260501233932 | 54 | 212 | 4.0 | 11.0 | 0.00 | 0.00 | 0.00 | 71 | 1008.8 |
| 20260501233330 | 54 | 212 | 4.0 | 11.0 | 0.00 | 0.00 | 0.00 | 71 | 1008.8 |
| 20260501232119 | 54 | 248 | 5.0 | 12.0 | 0.00 | 0.00 | 0.00 | 73 | 1008.8 |
| 20260501231520 | 54 | 272 | 4.0 | 9.0 | 0.00 | 0.00 | 0.00 | 74 | 1008.8 |
| 20260501230915 | 54 | 272 | 4.0 | 9.0 | 0.00 | 0.00 | 0.00 | 74 | 1008.8 |
| 20260501230339 | 54 | 272 | 4.0 | 9.0 | 0.00 | 0.00 | 0.00 | 74 | 1008.8 |
| 20260501225745 | 54 | 216 | 5.0 | 5.0 | 0.00 | 0.00 | 0.00 | 74 | 1008.8 |
| 20260501224521 | 54 | 244 | 2.0 | 5.0 | 0.00 | 0.00 | 0.00 | 74 | 1008.8 |
| 20260501223953 | 54 | 244 | 2.0 | 5.0 | 0.00 | 0.00 | 0.00 | 74 | 1008.8 |
| 20260501223351 | 54 | 244 | 2.0 | 5.0 | 0.00 | 0.00 | 0.00 | 74 | 1008.8 |
| 20260501222716 | 54 | 247 | 4.0 | 5.0 | 0.00 | 0.00 | 0.00 | 74 | 1008.8 |
| 20260501222115 | 54 | 247 | 4.0 | 5.0 | 0.00 | 0.00 | 0.00 | 74 | 1008.8 |
| 20260501221520 | 53 | 257 | 5.0 | 7.0 | 0.00 | 0.00 | 0.00 | 75 | 1008.8 |
| 20260501220340 | 53 | 257 | 5.0 | 7.0 | 0.00 | 0.00 | 0.00 | 75 | 1008.8 |
| 20260501215719 | 54 | 229 | 3.0 | 11.0 | 0.00 | 0.00 | 0.00 | 74 | 1008.8 |
| 20260501215129 | 54 | 229 | 3.0 | 11.0 | 0.00 | 0.00 | 0.00 | 74 | 1008.8 |
| 20260501214546 | 54 | 229 | 3.0 | 11.0 | 0.00 | 0.00 | 0.00 | 74 | 1008.8 |
| 20260501213923 | 54 | 202 | 3.0 | 7.0 | 0.00 | 0.00 | 0.00 | 71 | 1008.4 |
| 20260501213324 | 54 | 202 | 3.0 | 7.0 | 0.00 | 0.00 | 0.00 | 71 | 1008.4 |
| 20260501212738 | 54 | 263 | 5.0 | 7.0 | 0.00 | 0.00 | 0.00 | 71 | 1008.4 |
| 20260501212141 | 54 | 263 | 5.0 | 7.0 | 0.00 | 0.00 | 0.00 | 71 | 1008.4 |
| 20260501210942 | 55 | 184 | 0.0 | 10.0 | 0.00 | 0.00 | 0.00 | 71 | 1008.1 |
| 20260501210334 | 55 | 184 | 0.0 | 10.0 | 0.00 | 0.00 | 0.00 | 71 | 1008.1 |
| 20260501205152 | 55 | 263 | 4.0 | 13.0 | 0.00 | 0.00 | 0.00 | 72 | 1008.4 |
| 20260501204536 | 55 | 263 | 4.0 | 13.0 | 0.00 | 0.00 | 0.00 | 72 | 1008.4 |
| 20260501203941 | 56 | 260 | 6.0 | 18.0 | 0.00 | 0.00 | 0.00 | 74 | 1008.4 |
| 20260501203329 | 56 | 260 | 6.0 | 18.0 | 0.00 | 0.00 | 0.00 | 74 | 1008.4 |
| 20260501202444 | 56 | 252 | 16.0 | 21.0 | 0.00 | 0.00 | 0.00 | 73 | 1008.1 |
| 20260501201809 | 56 | 252 | 16.0 | 21.0 | 0.00 | 0.00 | 0.00 | 73 | 1008.1 |
| 20260501201239 | 56 | 240 | 8.0 | 10.0 | 0.00 | 0.00 | 0.00 | 77 | 1007.7 |
| 20260501200048 | 56 | 240 | 8.0 | 10.0 | 0.00 | 0.00 | 0.00 | 77 | 1007.7 |
| 20260501194853 | 56 | 263 | 4.0 | 9.0 | 0.00 | 0.00 | 0.00 | 78 | 1008.1 |
| 20260501194230 | 56 | 254 | 2.0 | 15.0 | 0.00 | 0.00 | 0.00 | 74 | 1007.7 |
| 20260501193623 | 56 | 254 | 2.0 | 15.0 | 0.00 | 0.00 | 0.00 | 74 | 1007.7 |
| 20260501193039 | 56 | 254 | 2.0 | 15.0 | 0.00 | 0.00 | 0.00 | 74 | 1007.7 |
| 20260501192423 | 58 | 253 | 11.0 | 15.0 | 0.00 | 0.00 | 0.00 | 65 | 1008.1 |
| 20260501191236 | 61 | 232 | 0.0 | 6.0 | 0.00 | 0.00 | 0.00 | 56 | 1007.4 |
| 20260501190645 | 61 | 232 | 0.0 | 6.0 | 0.00 | 0.00 | 0.00 | 56 | 1007.4 |
| 20260501190012 | 62 | 191 | 0.0 | 10.0 | 0.00 | 0.00 | 0.00 | 53 | 1007.1 |
| 20260501185428 | 62 | 191 | 0.0 | 10.0 | 0.00 | 0.00 | 0.00 | 53 | 1007.1 |
| 20260501184841 | 62 | 191 | 0.0 | 10.0 | 0.00 | 0.00 | 0.00 | 53 | 1007.1 |
| 20260501184223 | 63 | 223 | 4.0 | 11.0 | 0.00 | 0.00 | 0.00 | 52 | 1007.1 |
| 20260501183648 | 63 | 223 | 4.0 | 11.0 | 0.00 | 0.00 | 0.00 | 52 | 1007.1 |
| 20260501182421 | 63 | 129 | 2.0 | 11.0 | 0.00 | 0.00 | 0.00 | 50 | 1007.1 |
| 20260501181823 | 63 | 129 | 2.0 | 11.0 | 0.00 | 0.00 | 0.00 | 50 | 1007.1 |
| 20260501181238 | 63 | 263 | 9.0 | 12.0 | 0.00 | 0.00 | 0.00 | 49 | 1007.1 |
| 20260501180653 | 63 | 263 | 9.0 | 12.0 | 0.00 | 0.00 | 0.00 | 49 | 1007.1 |
| 20260501180037 | 63 | 263 | 9.0 | 12.0 | 0.00 | 0.00 | 0.00 | 49 | 1007.1 |
| 20260501172428 | 62 | 128 | 6.0 | 12.0 | 0.00 | 0.00 | 0.00 | 54 | 1007.1 |
| 20260501171232 | 60 | 77 | 0.0 | 13.0 | 0.00 | 0.00 | 0.00 | 53 | 1007.4 |
| 20260501170612 | 60 | 77 | 0.0 | 13.0 | 0.00 | 0.00 | 0.00 | 53 | 1007.4 |
| 20260501170023 | 60 | 77 | 0.0 | 13.0 | 0.00 | 0.00 | 0.00 | 53 | 1007.4 |
| 20260501164851 | 60 | 71 | 4.0 | 8.0 | 0.00 | 0.00 | 0.00 | 51 | 1007.7 |
| 20260501164237 | 60 | 78 | 1.0 | 10.0 | 0.00 | 0.00 | 0.00 | 56 | 1007.7 |
| 20260501163644 | 60 | 78 | 1.0 | 10.0 | 0.00 | 0.00 | 0.00 | 56 | 1007.7 |
| 20260501162426 | 59 | 188 | 0.0 | 9.0 | 0.00 | 0.00 | 0.00 | 56 | 1008.1 |
| 20260501160626 | 58 | 138 | 3.0 | 12.0 | 0.00 | 0.00 | 0.00 | 57 | 1007.7 |
| 20260501160022 | 57 | 63 | 7.0 | 8.0 | 0.00 | 0.00 | 0.00 | 58 | 1007.7 |
| 20260501155433 | 57 | 63 | 7.0 | 8.0 | 0.00 | 0.00 | 0.00 | 58 | 1007.7 |
| 20260501154234 | 57 | 67 | 7.0 | 12.0 | 0.00 | 0.00 | 0.00 | 59 | 1008.1 |
| 20260501153032 | 57 | 132 | 0.0 | 13.0 | 0.00 | 0.00 | 0.00 | 59 | 1008.1 |
| 20260501152413 | 57 | 132 | 0.0 | 13.0 | 0.00 | 0.00 | 0.00 | 59 | 1008.1 |
| 20260501151832 | 57 | 132 | 0.0 | 13.0 | 0.00 | 0.00 | 0.00 | 59 | 1008.1 |
| 20260501145451 | 55 | 77 | 4.0 | 11.0 | 0.00 | 0.00 | 0.00 | 65 | 1008.4 |
| 20260501143911 | 55 | 92 | 3.0 | 11.0 | 0.00 | 0.00 | 0.00 | 68 | 1008.8 |
| 20260501143313 | 55 | 92 | 3.0 | 11.0 | 0.00 | 0.00 | 0.00 | 68 | 1008.8 |